Weather Roundup
Issued by NWS Chicago, IL

Home | Current Version | Previous Version | Graphics & Text | Print | Product List | Glossary On
Versions: 1 2 3 4 5 6 7 8 9 10 11 12 13 14 15 16 17 18 19 20 21 22 23 24 25 26 27 28 29 30 31 32 33 34 35 36 37 38 39 40 41 42 43 44 45 46 47 48 49 50
000
NZUS59 KLOT 270812
HRRLOT

CHICAGO AREA WEATHER ROUNDUP
NATIONAL WEATHER SERVICE CHICAGO/ROMEOVILLE IL
200 AM CST MON FEB 27 2017

NOTE: "FAIR" INDICATES FEW OR NO CLOUDS BELOW 12,000 FEET WITH NO
SIGNIFICANT WEATHER AND/OR OBSTRUCTIONS TO VISIBILITY.

* THESE STATIONS ARE NOT UNDER NWS QUALITY CONTROL. THEY ALSO MAY NOT
  REPORT WEATHER SUCH AS PRECIPITATION OR FOG.

ILZ005-006-012>014-019>023-270900-
NORTHEAST ILLINOIS

CITY           SKY/WX    TMP DP  RH WIND       PRES   REMARKS
OHARE          PTCLDY    34  24  67 CALM      30.08R
MIDWAY         PTCLDY    35  23  61 SW6       30.10R WCI  30
AURORA         PTCLDY    34  25  69 SW8       30.10R WCI  27
LANSING*       CLEAR     29  26  88 S6        30.12R WCI  23
JOLIET*        CLEAR     36  27  71 SW5       30.11R
WAUKEGAN       CLEAR     31  29  92 CALM      30.08R
DUPAGE AIRPORT CLEAR     27  21  78 S7        30.08R WCI  19
WHEELING       CLEAR     32  25  75 CALM      30.10R
KANKAKEE*      PTCLDY    30  24  77 CALM      30.14R
MORRIS*        CLEAR     33  26  75 SW6       30.10R WCI  27
LEWIS AIRPORT* PTCLDY    34  29  82 SW8       30.10R WCI  27
NORTHERLY ISL    N/A     38  24  57 SW5         N/A
$$

WIZ051-052-058>065-066-070>072-270900-
SOUTHEAST WISCONSIN

CITY           SKY/WX    TMP DP  RH WIND       PRES   REMARKS
MILWAUKEE      CLEAR     33  22  63 W3        30.08R
KENOSHA*       PTCLDY    31  25  78 CALM      30.08R
RACINE*        CLEAR     31  25  78 W3        30.09R
WAUKESHA       CLEAR     25  21  86 S3        30.08R
WEST BEND      CLEAR     30  23  74 SW3       30.06R
$$

INZ001>003-010>013-019-020-270900-
NORTHWEST INDIANA

CITY           SKY/WX    TMP DP  RH WIND       PRES   REMARKS
GARY*          PTCLDY    37  24  59 SW7       30.12R
MICHIGAN CITY* NOT AVBL
RENSSELAER*    NOT AVBL
VALPARAISO     CLEAR     33  24  69 SW8       30.13R WCI  26
$$

LMZ740>746-270900-
SOUTHERN LAKE MICHIGAN

STATION/POSITION TIME  SKY/WX   TEMP WIND        PRES    VSBY
                                AIR  DIR/SP/G
                 (UTC)          (F)  (DEG/KT/KT) (MB)    (MI)
HARRISON CRIB    0740            40  250/ 13/ 14   N/A
BURNHAM HARBOR   0800            38  210/  5/  8   N/A
CALUMET HARBOR   0742            36  200/  7/  9 1018.8R
BURNS HARBOR     0740            38  210/ 14/ 19 1020.0R
MICHIGAN CITY    0740            38  190/ 14/ 17   N/A
$$

ABBREVIATIONS USED IN REMARKS
   TC - TEMPERATURE IN CELSIUS
  WCI - WIND CHILL INDEX
   HX - HEAT INDEX
  VSB - VISIBILITY
$$



USA.gov is the U.S. government's official web portal to all federal, state and local government web resources and services.